Amarillo, TX

10:18 PM CDT on October 17, 2017 (GMT -0500)
Amarillo International

Weather History for KAMA - February, 2012

Change the Weather History Date:

Wednesday, February 29, 2012

  Actual Average Record
Temperature  
Mean Temperature 51 °F 44 °F  
Max Temperature 69 °F 58 °F 83 °F (1940)
Min Temperature 32 °F 30 °F 10 °F (1960)
Degree Days  
Heating Degree Days 14 21  
Month to date heating degree days 711 713  
Since 1 July heating degree days 3079 3298  
Cooling Degree Days 0 0  
Month to date cooling degree days 0 0  
Year to date cooling degree days 0 0  
Growing Degree Days 1 (Base 50)    
Moisture  
Dew Point 12 °F    
Average Humidity 30    
Maximum Humidity 51    
Minimum Humidity 8    
Precipitation  
Precipitation 0.00 in 0.03 in 0.30 in (2004)
Month to date precipitation 0.63 0.56  
Year to date precipitation 0.68 1.28  
Snow  
Snow 0.00 in 0.10 in 0.70 in (1960)
Month to date snowfall 2.6 2.9  
Since 1 July snowfall 12.3 14.0  
Snow Depth 0.00 in    
Sea Level Pressure  
Sea Level Pressure 29.90 in    
Wind  
Wind Speed 14 mph (SW)    
Max Wind Speed 29 mph    
Max Gust Speed 35 mph    
Visibility 10 miles    
Events      
T = Trace of Precipitation, MM = Missing Value Source: NWS Daily Summary

Daily Weather History Graph

Daily Weather History Graph

Search for Another Location

Airport or City:

Trip Planner

Search our weather history database for the weather conditions in past years. The results will help you decide how hot, cold, wet, or windy it might be!

Date:

Astronomy

Feb. 29, 2012 Rise Set
Actual Time 7:17 AM CST 6:41 PM CST
Civil Twilight 6:51 AM CST 7:07 PM CST
Nautical Twilight 6:22 AM CST 7:36 PM CST
Astronomical Twilight 5:52 AM CST 8:06 PM CST
Moon 11:26 AM CST (2/29) 1:14 AM CST (2/29)
Length of Visible Light 12h 15m
Length of Day
11h 24m
Waxing Crescent, 47% of the Moon is Illuminated
Feb 29
Waxing Crescent
Feb 29
First Quarter
Mar 8
Full
Mar 14
Last Quarter
Mar 22
New

Hourly Weather History & Observations

Time (CST) Temp. Windchill Dew Point Humidity Pressure Visibility Wind Dir Wind Speed Gust Speed Precip Events Conditions
12:53 AM 45.0 °F 37.9 °F 12.0 °F 26% 29.87 in 10.0 mi WSW 16.1 mph - N/A   Clear
1:53 AM 43.0 °F 35.1 °F 12.9 °F 30% 29.88 in 10.0 mi West 17.3 mph - N/A   Clear
2:53 AM 39.0 °F 30.6 °F 14.0 °F 36% 29.87 in 10.0 mi WSW 15.0 mph - N/A   Clear
3:53 AM 37.9 °F 29.2 °F 15.1 °F 39% 29.88 in 10.0 mi WSW 15.0 mph - N/A   Clear
4:53 AM 36.0 °F 27.5 °F 16.0 °F 44% 29.93 in 10.0 mi WSW 12.7 mph - N/A   Clear
5:53 AM 33.1 °F 23.9 °F 17.1 °F 52% 29.97 in 10.0 mi SW 12.7 mph - N/A   Clear
6:53 AM 35.1 °F 24.8 °F 18.0 °F 50% 29.98 in 10.0 mi WSW 17.3 mph - N/A   Clear
7:53 AM 36.0 °F 27.5 °F 18.0 °F 48% 30.01 in 10.0 mi WSW 12.7 mph - N/A   Clear
8:53 AM 43.0 °F 36.0 °F 18.0 °F 37% 30.00 in 10.0 mi SW 13.8 mph - N/A   Clear
9:53 AM 48.9 °F - 18.0 °F 29% 30.01 in 10.0 mi WSW 10.4 mph - N/A   Clear
10:53 AM 53.1 °F - 15.1 °F 22% 30.00 in 10.0 mi West 10.4 mph - N/A   Clear
11:53 AM 55.0 °F - 14.0 °F 20% 29.98 in 10.0 mi WSW 8.1 mph - N/A   Clear
12:53 PM 57.9 °F - 14.0 °F 18% 29.95 in 10.0 mi Variable 4.6 mph - N/A   Clear
1:53 PM 62.1 °F - 12.9 °F 15% 29.91 in 10.0 mi South 11.5 mph - N/A   Clear
2:53 PM 64.0 °F - 10.9 °F 13% 29.87 in 10.0 mi South 18.4 mph 24.2 mph N/A   Clear
3:53 PM 66.9 °F - 9.0 °F 10% 29.83 in 10.0 mi SW 12.7 mph 17.3 mph N/A   Clear
4:53 PM 69.1 °F - 6.1 °F 9% 29.81 in 10.0 mi SW 20.7 mph 28.8 mph N/A   Clear
5:53 PM 66.0 °F - 6.1 °F 9% 29.81 in 10.0 mi SW 20.7 mph 24.2 mph N/A   Clear
6:53 PM 59.0 °F - 5.0 °F 12% 29.84 in 10.0 mi SSW 16.1 mph - N/A   Clear
7:53 PM 55.0 °F - 7.0 °F 15% 29.85 in 10.0 mi SSW 17.3 mph - N/A   Clear
8:53 PM 48.9 °F - 9.0 °F 20% 29.85 in 10.0 mi SSW 12.7 mph - N/A   Clear
9:53 PM 48.9 °F - 9.0 °F 20% 29.83 in 10.0 mi SW 18.4 mph - N/A   Clear
10:53 PM 53.1 °F - 6.1 °F 15% 29.82 in 10.0 mi WSW 12.7 mph - N/A   Clear
11:53 PM 51.1 °F - 7.0 °F 17% 29.81 in 10.0 mi WSW 11.5 mph - N/A   Clear